Regional Weather Roundup
Issued by NWS Raleigh/Durham, NC

Home | Current Version | Previous Version | Text Only | Print | Product List | Glossary On
Versions: 1 2 3 4 5 6 7 8 9 10 11 12 13 14 15 16 17 18 19 20 21 22 23 24 25 26 27 28 29 30 31 32 33 34 35 36 37 38 39 40 41 42 43 44 45 46 47 48 49 50
000
ASUS42 KRAH 261710
RWRRAH
NORTH CAROLINA WEATHER ROUNDUP
NATIONAL WEATHER SERVICE RALEIGH NC
100 PM EDT SAT JUL 26 2014

NOTE: "FAIR" INDICATES FEW OR NO CLOUDS BELOW 12,000 FEET WITH NO
SIGNIFICANT WEATHER AND/OR OBSTRUCTIONS TO VISIBILITY.

NCZ001-053-055-056-065-067-261800-
WESTERN NORTH CAROLINA

CITY           SKY/WX    TMP DP  RH WIND       PRES   REMARKS
ASHEVILLE      SUNNY     81  60  48 N10       30.12S
JEFFERSON      PTSUNNY   76  49  37 W6        30.15F
MORGANTON      SUNNY     84  64  50 CALM      30.10S
HICKORY        CLOUDY    84  64  50 CALM      30.05F
RUTHERFORDTON  MOSUNNY   83  66  56 CALM      30.06F
MOUNT AIRY     SUNNY     84  67  55 S3        30.04S
BOONE          SUNNY     76  42  29 W10       30.16S
$$

NCZ021-022-025-041-071-084-088-261800-
CENTRAL NORTH CAROLINA

CITY           SKY/WX    TMP DP  RH WIND       PRES   REMARKS
CHARLOTTE      PTSUNNY   86  66  51 VRB6      30.04F
GREENSBORO     PTSUNNY   85  69  58 W7        30.03F
WINSTON-SALEM  MOSUNNY   85  64  49 CALM      30.04F
RALEIGH-DURHAM MOSUNNY   84  71  65 VRB6      30.04F
FORT BRAGG     SUNNY     88  72  60 CALM      30.01F
FAYETTEVILLE   PTSUNNY   86  70  58 CALM      30.01F
BURLINGTON     MOSUNNY   85  70  60 S7        30.03F
LAURINBURG     PTSUNNY   86  70  58 SE3       30.03F
$$

NCZ011-015-027-028-043-044-047-080-103-261800-
NORTHEASTERN NORTH CAROLINA

CITY           SKY/WX    TMP DP  RH WIND       PRES   REMARKS
ROCKY MT-WILSO MOSUNNY   86  71  60 VRB5      30.02F
GREENVILLE     MOSUNNY   86  72  62 CALM      30.03F HAZE
WASHINGTON     SUNNY     84  72  68 CALM      30.02F
ELIZABETH CITY SUNNY     83  66  56 VRB5      30.02F
MANTEO         NOT AVBL
CAPE HATTERAS  MOSUNNY   83  72  69 E8        30.02F
$$

NCZ078-087-090-091-093-098-101-261800-
SOUTHEASTERN NORTH CAROLINA

CITY           SKY/WX    TMP DP  RH WIND       PRES   REMARKS
LUMBERTON      PTSUNNY   88  71  57 CALM      30.01F
GOLDSBORO      MOSUNNY   86  75  71 N3        30.00F
KINSTON        PTSUNNY   84  72  65 CALM      30.02F
KENANSVILLE    MOSUNNY   86  70  57 W3        30.02F
NEW BERN       PTSUNNY   86  70  58 CALM      30.02F
CHERRY POINT   MOSUNNY   86  73  65 VRB3      30.02F
BEAUFORT       MOSUNNY   85  74  69 E8        30.01S
JACKSONVILLE   PTSUNNY   86  73  65 E6        30.01F
WILMINGTON     MOSUNNY   89  75  63 NE5       30.01F HX  99
$$



USA.gov is the U.S. government's official web portal to all federal, state and local government web resources and services.